Time,TemperatureF,DewpointF,PressureIn,WindDirection,WindDirectionDegrees,WindSpeedMPH,WindSpeedGustMPH,Humidity,HourlyPrecipIn,Conditions,Clouds,dailyrainin,SoftwareType,DateUTC
2014-03-08 00:05:00,38.3,35.0,30.02,North,11,12.0,20.0,87,0.00,,,0.00,weatherlink.com 1.10,2014-03-08 05:05:00,
2014-03-08 00:20:00,38.4,35.0,30.02,North,349,9.0,20.0,87,0.00,,,0.00,weatherlink.com 1.10,2014-03-08 05:20:00,
2014-03-08 00:35:00,38.3,35.0,30.03,NW,311,13.0,21.0,87,0.00,,,0.00,weatherlink.com 1.10,2014-03-08 05:35:00,
2014-03-08 00:50:00,38.4,35.0,30.03,West,280,14.0,21.0,87,0.00,,,0.00,weatherlink.com 1.10,2014-03-08 05:50:00,
2014-03-08 01:05:00,38.7,35.0,30.03,NNW,331,7.0,25.0,87,0.00,,,0.00,weatherlink.com 1.10,2014-03-08 06:05:00,
2014-03-08 01:20:00,38.6,35.0,30.04,NW,316,6.0,23.0,87,0.00,,,0.00,weatherlink.com 1.10,2014-03-08 06:20:00,
2014-03-08 01:36:00,38.5,35.0,30.04,NW,309,5.0,15.0,87,0.00,,,0.00,weatherlink.com 1.10,2014-03-08 06:36:00,
2014-03-08 01:51:00,38.4,35.0,30.04,WNW,294,10.0,20.0,87,0.00,,,0.00,weatherlink.com 1.10,2014-03-08 06:51:00,
2014-03-08 02:07:00,38.6,35.0,30.04,WNW,285,8.0,18.0,87,0.00,,,0.00,weatherlink.com 1.10,2014-03-08 07:07:00,
2014-03-08 02:21:00,38.7,35.0,30.03,NW,323,6.0,19.0,86,0.00,,,0.00,weatherlink.com 1.10,2014-03-08 07:21:00,
2014-03-08 02:36:00,38.7,35.0,30.03,NW,323,8.0,19.0,86,0.00,,,0.00,weatherlink.com 1.10,2014-03-08 07:36:00,
2014-03-08 02:51:00,38.8,35.0,30.03,NNW,331,10.0,22.0,86,0.00,,,0.00,weatherlink.com 1.10,2014-03-08 07:51:00,
2014-03-08 03:06:00,39.1,35.0,30.02,NNW,335,9.0,17.0,85,0.00,,,0.00,weatherlink.com 1.10,2014-03-08 08:06:00,
2014-03-08 03:21:00,38.9,35.0,30.03,West,280,8.0,19.0,86,0.00,,,0.00,weatherlink.com 1.10,2014-03-08 08:21:00,
2014-03-08 03:36:00,38.4,35.0,30.04,NW,321,8.0,16.0,87,0.00,,,0.00,weatherlink.com 1.10,2014-03-08 08:36:00,
2014-03-08 03:51:00,38.7,35.0,30.03,NW,316,8.0,19.0,86,0.00,,,0.00,weatherlink.com 1.10,2014-03-08 08:51:00,
2014-03-08 04:06:00,39.3,35.0,30.04,NNW,342,5.0,18.0,85,0.00,,,0.00,weatherlink.com 1.10,2014-03-08 09:06:00,
2014-03-08 04:21:00,38.7,35.0,30.04,NNW,345,9.0,15.0,86,0.00,,,0.00,weatherlink.com 1.10,2014-03-08 09:21:00,
2014-03-08 04:36:00,38.6,35.0,30.04,NNW,332,7.0,14.0,86,0.00,,,0.00,weatherlink.com 1.10,2014-03-08 09:36:00,
2014-03-08 04:51:00,38.5,35.0,30.05,NNW,333,6.0,13.0,87,0.00,,,0.00,weatherlink.com 1.10,2014-03-08 09:51:00,
2014-03-08 05:06:00,38.4,35.0,30.05,WNW,297,7.0,18.0,87,0.00,,,0.00,weatherlink.com 1.10,2014-03-08 10:06:00,
2014-03-08 05:21:00,38.4,35.0,30.05,NW,316,5.0,18.0,87,0.00,,,0.00,weatherlink.com 1.10,2014-03-08 10:21:00,
2014-03-08 05:36:00,38.2,35.0,30.06,NNW,336,6.0,15.0,88,0.00,,,0.00,weatherlink.com 1.10,2014-03-08 10:36:00,
2014-03-08 05:51:00,38.5,35.0,30.05,NNW,329,8.0,17.0,88,0.00,,,0.00,weatherlink.com 1.10,2014-03-08 10:51:00,
2014-03-08 06:06:00,38.4,35.0,30.06,NW,326,9.0,18.0,88,0.00,,,0.00,weatherlink.com 1.10,2014-03-08 11:06:00,
2014-03-08 06:21:00,38.4,35.0,30.07,NNW,340,7.0,19.0,88,0.00,,,0.00,weatherlink.com 1.10,2014-03-08 11:21:00,
2014-03-08 06:36:00,38.6,35.0,30.07,North,1,9.0,20.0,88,0.00,,,0.00,weatherlink.com 1.10,2014-03-08 11:36:00,
2014-03-08 06:51:00,38.7,36.0,30.07,NNW,347,9.0,20.0,88,0.00,,,0.00,weatherlink.com 1.10,2014-03-08 11:51:00,
2014-03-08 07:06:00,39.1,36.0,30.07,NNW,334,7.0,19.0,87,0.00,,,0.00,weatherlink.com 1.10,2014-03-08 12:06:00,
2014-03-08 07:21:00,39.3,36.0,30.08,West,263,4.0,19.0,86,0.00,,,0.00,weatherlink.com 1.10,2014-03-08 12:21:00,
2014-03-08 07:36:00,39.7,36.0,30.08,North,360,6.0,16.0,86,0.00,,,0.00,weatherlink.com 1.10,2014-03-08 12:36:00,
2014-03-08 07:51:00,39.7,36.0,30.09,NNW,342,6.0,13.0,86,0.00,,,0.00,weatherlink.com 1.10,2014-03-08 12:51:00,
2014-03-08 08:06:00,40.4,36.0,30.09,NW,312,6.0,13.0,85,0.00,,,0.00,weatherlink.com 1.10,2014-03-08 13:06:00,
2014-03-08 08:21:00,41.1,37.0,30.09,North,356,10.0,22.0,84,0.00,,,0.00,weatherlink.com 1.10,2014-03-08 13:21:00,
2014-03-08 08:36:00,41.7,37.0,30.08,NW,304,15.0,19.0,83,0.00,,,0.00,weatherlink.com 1.10,2014-03-08 13:36:00,
2014-03-08 08:51:00,42.4,37.0,30.09,NW,322,13.0,20.0,81,0.00,,,0.00,weatherlink.com 1.10,2014-03-08 13:51:00,
2014-03-08 09:06:00,42.2,37.0,30.09,NW,304,10.0,22.0,82,0.00,,,0.00,weatherlink.com 1.10,2014-03-08 14:06:00,
2014-03-08 09:21:00,42.4,37.0,30.09,NW,321,15.0,25.0,81,0.00,,,0.00,weatherlink.com 1.10,2014-03-08 14:21:00,
2014-03-08 09:36:00,42.8,37.0,30.09,NW,314,17.0,22.0,80,0.00,,,0.00,weatherlink.com 1.10,2014-03-08 14:36:00,
2014-03-08 09:51:00,43.6,38.0,30.10,WNW,302,5.0,16.0,79,0.00,,,0.00,weatherlink.com 1.10,2014-03-08 14:51:00,
2014-03-08 10:06:00,44.6,38.0,30.09,NW,325,6.0,20.0,77,0.00,,,0.00,weatherlink.com 1.10,2014-03-08 15:06:00,
2014-03-08 10:22:00,45.1,37.0,30.10,NW,323,9.0,16.0,74,0.00,,,0.00,weatherlink.com 1.10,2014-03-08 15:22:00,
2014-03-08 10:37:00,45.5,37.0,30.09,NW,311,3.0,18.0,72,0.00,,,0.00,weatherlink.com 1.10,2014-03-08 15:37:00,
2014-03-08 10:52:00,46.3,37.0,30.09,NNW,330,9.0,16.0,69,0.00,,,0.00,weatherlink.com 1.10,2014-03-08 15:52:00,
2014-03-08 11:07:00,47.7,37.0,30.09,NW,314,3.0,12.0,66,0.00,,,0.00,weatherlink.com 1.10,2014-03-08 16:07:00,
2014-03-08 11:22:00,48.5,36.0,30.09,NW,306,9.0,13.0,62,0.00,,,0.00,weatherlink.com 1.10,2014-03-08 16:22:00,
2014-03-08 11:37:00,49.1,35.0,30.10,NW,310,5.0,13.0,59,0.00,,,0.00,weatherlink.com 1.10,2014-03-08 16:37:00,
2014-03-08 11:52:00,49.1,33.0,30.10,NW,309,8.0,17.0,55,0.00,,,0.00,weatherlink.com 1.10,2014-03-08 16:52:00,
2014-03-08 12:07:00,49.8,33.0,30.10,NNW,338,7.0,17.0,53,0.00,,,0.00,weatherlink.com 1.10,2014-03-08 17:07:00,
2014-03-08 12:22:00,50.1,33.0,30.09,NW,322,5.0,18.0,53,0.00,,,0.00,weatherlink.com 1.10,2014-03-08 17:22:00,
2014-03-08 12:37:00,50.1,32.0,30.08,NW,315,10.0,15.0,50,0.00,,,0.00,weatherlink.com 1.10,2014-03-08 17:37:00,
2014-03-08 12:52:00,50.5,32.0,30.07,WNW,290,8.0,14.0,50,0.00,,,0.00,weatherlink.com 1.10,2014-03-08 17:52:00,
2014-03-08 13:07:00,50.8,33.0,30.07,NNW,335,5.0,12.0,50,0.00,,,0.00,weatherlink.com 1.10,2014-03-08 18:07:00,
2014-03-08 13:22:00,51.6,32.0,30.07,West,278,2.0,11.0,48,0.00,,,0.00,weatherlink.com 1.10,2014-03-08 18:22:00,
2014-03-08 13:37:00,51.5,32.0,30.06,NW,323,6.0,12.0,47,0.00,,,0.00,weatherlink.com 1.10,2014-03-08 18:37:00,
2014-03-08 13:52:00,51.7,31.0,30.05,NNW,334,6.0,15.0,46,0.00,,,0.00,weatherlink.com 1.10,2014-03-08 18:52:00,
2014-03-08 14:07:00,52.6,32.0,30.04,NW,311,7.0,10.0,45,0.00,,,0.00,weatherlink.com 1.10,2014-03-08 19:07:00,
2014-03-08 14:22:00,52.7,29.0,30.03,NW,312,6.0,12.0,41,0.00,,,0.00,weatherlink.com 1.10,2014-03-08 19:22:00,
2014-03-08 14:37:00,52.7,28.0,30.03,NNW,334,8.0,17.0,39,0.00,,,0.00,weatherlink.com 1.10,2014-03-08 19:37:00,
2014-03-08 14:52:00,53.2,29.0,30.03,NNW,335,8.0,20.0,39,0.00,,,0.00,weatherlink.com 1.10,2014-03-08 19:52:00,
2014-03-08 15:07:00,53.8,29.0,30.02,NNW,335,7.0,17.0,38,0.00,,,0.00,weatherlink.com 1.10,2014-03-08 20:07:00,
2014-03-08 15:22:00,53.9,29.0,30.03,NNW,329,6.0,17.0,38,0.00,,,0.00,weatherlink.com 1.10,2014-03-08 20:22:00,
2014-03-08 15:37:00,54.7,30.0,30.03,NNW,333,6.0,11.0,39,0.00,,,0.00,weatherlink.com 1.10,2014-03-08 20:37:00,
2014-03-08 15:52:00,54.1,29.0,30.02,NNW,340,10.0,16.0,38,0.00,,,0.00,weatherlink.com 1.10,2014-03-08 20:52:00,
2014-03-08 16:07:00,53.9,29.0,30.02,WNW,302,7.0,14.0,39,0.00,,,0.00,weatherlink.com 1.10,2014-03-08 21:07:00,
2014-03-08 16:22:00,54.2,30.0,30.02,North,356,8.0,12.0,40,0.00,,,0.00,weatherlink.com 1.10,2014-03-08 21:22:00,
2014-03-08 16:37:00,54.7,30.0,30.01,NNE,16,5.0,14.0,39,0.00,,,0.00,weatherlink.com 1.10,2014-03-08 21:37:00,
2014-03-08 16:52:00,54.0,29.0,30.02,NW,323,8.0,19.0,38,0.00,,,0.00,weatherlink.com 1.10,2014-03-08 21:52:00,
2014-03-08 17:07:00,53.6,28.0,30.02,WNW,295,7.0,20.0,37,0.00,,,0.00,weatherlink.com 1.10,2014-03-08 22:07:00,
2014-03-08 17:23:00,53.7,27.0,30.02,NW,310,14.0,15.0,36,0.00,,,0.00,weatherlink.com 1.10,2014-03-08 22:23:00,
2014-03-08 17:38:00,52.9,27.0,30.03,NW,314,4.0,13.0,37,0.00,,,0.00,weatherlink.com 1.10,2014-03-08 22:38:00,
2014-03-08 17:53:00,52.0,28.0,30.03,West,273,3.0,18.0,39,0.00,,,0.00,weatherlink.com 1.10,2014-03-08 22:53:00,
2014-03-08 18:08:00,51.0,28.0,30.04,WNW,296,6.0,14.0,41,0.00,,,0.00,weatherlink.com 1.10,2014-03-08 23:08:00,
2014-03-08 18:23:00,49.4,28.0,30.03,NW,316,4.0,16.0,43,0.00,,,0.00,weatherlink.com 1.10,2014-03-08 23:23:00,
2014-03-08 18:38:00,48.2,28.0,30.03,WNW,297,8.0,17.0,46,0.00,,,0.00,weatherlink.com 1.10,2014-03-08 23:38:00,
2014-03-08 18:53:00,47.8,29.0,30.03,WNW,300,7.0,16.0,49,0.00,,,0.00,weatherlink.com 1.10,2014-03-08 23:53:00,
2014-03-08 19:08:00,47.6,30.0,30.03,West,265,7.0,15.0,50,0.00,,,0.00,weatherlink.com 1.10,2014-03-09 00:08:00,
2014-03-08 19:23:00,47.4,30.0,30.04,NNW,337,11.0,17.0,51,0.00,,,0.00,weatherlink.com 1.10,2014-03-09 00:23:00,
2014-03-08 19:38:00,47.3,30.0,30.03,NNW,333,7.0,19.0,51,0.00,,,0.00,weatherlink.com 1.10,2014-03-09 00:38:00,
2014-03-08 19:53:00,47.4,30.0,30.03,NNW,346,6.0,18.0,52,0.00,,,0.00,weatherlink.com 1.10,2014-03-09 00:53:00,
2014-03-08 20:08:00,47.0,30.0,30.02,WNW,297,10.0,15.0,53,0.00,,,0.00,weatherlink.com 1.10,2014-03-09 01:08:00,
2014-03-08 20:23:00,46.8,30.0,30.02,WNW,297,5.0,17.0,52,0.00,,,0.00,weatherlink.com 1.10,2014-03-09 01:23:00,
2014-03-08 20:38:00,47.1,30.0,30.02,NW,311,18.0,24.0,52,0.00,,,0.00,weatherlink.com 1.10,2014-03-09 01:38:00,
2014-03-08 20:53:00,47.1,30.0,30.02,NW,313,12.0,25.0,52,0.00,,,0.00,weatherlink.com 1.10,2014-03-09 01:53:00,
2014-03-08 21:08:00,46.9,30.0,30.02,WNW,301,8.0,23.0,53,0.00,,,0.00,weatherlink.com 1.10,2014-03-09 02:08:00,
2014-03-08 21:23:00,46.8,31.0,30.02,WNW,297,11.0,22.0,54,0.00,,,0.00,weatherlink.com 1.10,2014-03-09 02:23:00,
2014-03-08 21:38:00,46.4,31.0,30.02,NW,326,4.0,20.0,55,0.00,,,0.00,weatherlink.com 1.10,2014-03-09 02:38:00,
2014-03-08 21:53:00,46.1,31.0,30.02,WNW,295,6.0,13.0,56,0.00,,,0.00,weatherlink.com 1.10,2014-03-09 02:53:00,
2014-03-08 22:08:00,46.2,31.0,30.01,WNW,288,6.0,15.0,56,0.00,,,0.00,weatherlink.com 1.10,2014-03-09 03:08:00,
2014-03-08 22:23:00,46.3,31.0,30.00,WNW,299,7.0,20.0,56,0.00,,,0.00,weatherlink.com 1.10,2014-03-09 03:23:00,
2014-03-08 22:38:00,46.0,31.0,30.00,NW,309,9.0,22.0,57,0.00,,,0.00,weatherlink.com 1.10,2014-03-09 03:38:00,
2014-03-08 22:53:00,46.2,32.0,30.00,NNW,337,7.0,25.0,58,0.00,,,0.00,weatherlink.com 1.10,2014-03-09 03:53:00,
2014-03-08 23:08:00,46.4,32.0,29.99,NNW,332,9.0,41.0,58,0.00,,,0.00,weatherlink.com 1.10,2014-03-09 04:08:00,
2014-03-08 23:23:00,46.7,32.0,29.99,West,267,25.0,33.0,58,0.00,,,0.00,weatherlink.com 1.10,2014-03-09 04:23:00,
2014-03-08 23:38:00,46.4,32.0,29.98,North,349,17.0,29.0,58,0.00,,,0.00,weatherlink.com 1.10,2014-03-09 04:38:00,
2014-03-08 23:53:00,45.6,32.0,29.97,NW,319,11.0,28.0,60,0.00,,,0.00,weatherlink.com 1.10,2014-03-09 04:53:00,